Regional Weather Roundup
Issued by NWS

Home | Current Version | Previous Version | Graphics & Text | Print | Product List | Glossary On
Versions: 1 2 3 4 5 6 7 8 9 10 11 12 13 14 15 16 17 18 19 20 21 22 23 24 25 26 27
000
ASUS43 KDMX 241007
RWRIA

WEATHER ROUNDUP FOR IOWA
NATIONAL WEATHER SERVICE DES MOINES IA
500 AM CDT THU APR 24 2014

NOTE: "FAIR" INDICATES FEW OR NO CLOUDS BELOW 12,000 FEET WITH NO
SIGNIFICANT WEATHER AND/OR OBSTRUCTIONS TO VISIBILITY.

* - THESE STATIONS ARE NOT NWS STATIONS...THUS NOT UNDER NWS
QUALITY CONTROL.  THEY ALSO DO NOT REPORT WEATHER SUCH
AS PRECIPITATION OR FOG.

IAZ001>003-012>014-020>022-031>034-043>046-241100-
   NORTHWEST IOWA

CITY           SKY/WX    TMP DP  RH WIND       PRES   REMARKS
CARROLL *      CLOUDY    46  43  87 NE7       29.65S
CHEROKEE *     LGT RAIN  46  45  93 SE6       29.68R
DENISON *      CLOUDY    45  43  93 VRB7G14   29.63F
LE MARS *      CLOUDY    48  46  93 E8        29.67S FOG
ORANGE CITY *  DRIZZLE   48  45  87 E6        29.67S
SHELDON *      CLOUDY    46  45  93 E10       29.67F
SIOUX CITY     RAIN      49  47  93 SE5       29.66S
SPENCER        LGT RAIN  45  41  86 E10       29.70R
STORM LAKE *   LGT RAIN  43  43 100 E14G21    29.68S
$$

IAZ055>058-069>071-079>083-090>094-241100-
   SOUTHWEST IOWA

CITY           SKY/WX    TMP DP  RH WIND       PRES   REMARKS
ATLANTIC *     CLOUDY    55  45  67 W15       29.64R
AUDUBON *      MOCLDY    48  41  76 CALM      29.64S
CLARINDA *     MOCLDY    57  46  67 SE9       29.63F
COUNCIL BLFS * CLOUDY    48  48 100 N7        29.60F
CRESTON *      MOCLDY    55  43  62 SE18      29.64S
HARLAN  *      MOCLDY    48  45  87 NE9       29.65F
LAMONI         CLOUDY    57  42  57 SE13      29.68R
RED OAK *      CLOUDY    54  46  76 W5        29.63R
SHENANDOAH *   CLOUDY    52  48  87 E6        29.63F
$$

IAZ047>049-059>061-072>074-084-241100-
   CENTRAL IOWA

CITY           SKY/WX    TMP DP  RH WIND       PRES   REMARKS
AMES           CLOUDY    46  39  76 SE20G28   29.66F
ANKENY *       MOCLDY    46  41  81 SE20      29.67F
CHARITON *     LGT RAIN  50  41  71 SE12      29.71F
DES MOINES     LGT RAIN  50  42  74 SE15G24   29.67F
GRINNELL*      CLOUDY    46  39  76 E16       29.75F
KNOXVILLE *    CLOUDY    50  37  62 SE9G17    29.71F
MARSHALLTOWN   LGT RAIN  46  39  76 SE22G30   29.72F
NEWTON *       CLOUDY    46  39  76 E21       29.72F
PELLA *        DRIZZLE   48  39  71 SE10      29.73F
PERRY *        CLOUDY    50  41  71 SE14      29.65R
$$

IAZ004>006-015-016-023>025-035-036-241100-
   NORTH CENTRAL IOWA

CITY           SKY/WX    TMP DP  RH WIND       PRES   REMARKS
ALGONA *       CLOUDY    45  41  87 SE21G26   29.71S
CLARION *      CLOUDY    45  41  87 E15       29.72F
ESTHERVILLE    CLOUDY    44  42  93 SE21G31   29.70R
FORT DODGE *   CLOUDY    45  39  81 E13       29.70F
MASON CITY     LGT RAIN  43  40  89 E17       29.79S FOG
FOREST CITY *  LGT RAIN  43  41  93 E13       29.75F
IOWA FALLS *   LGT RAIN  45  41  87 E29G35    29.68F
$$

IAZ007>011-017>019-026>030-037>042-050>054-066-241100-
   NORTHEAST IOWA

CITY           SKY/WX    TMP DP  RH WIND       PRES   REMARKS
CEDAR RAPIDS   CLOUDY    45  38  76 E17       29.80F
CHARLES CITY * MIX PCPN  43  37  81 E24G30    29.77F
CLINTON *      CLOUDY    41  34  75 E21       29.93F
DECORAH *      CLOUDY    41  37  87 SE17G26   29.83F
DUBUQUE        CLOUDY    42  32  67 E18       29.89F
MONTICELLO *   CLOUDY    45  36  70 E23G29    29.85F
OELWEIN *      MIX PCPN N/A N/A N/A SE22G31   29.81F
WATERLOO       LGT RAIN  43  38  82 SE20G31   29.76F
$$

IAZ064-065-067-068-078-241100-
   EAST CENTRAL IOWA

CITY           SKY/WX    TMP DP  RH WIND       PRES   REMARKS
DAVENPORT      CLOUDY    43  36  76 SE17      29.89F
IOWA CITY      CLOUDY    48  39  71 E14       29.83F
MT. PLEASANT * MOCLDY    52  32  46 SE16G25   29.81S
MUSCATINE *    MOCLDY    48  37  66 SE16G24   29.85F
QUAD CITIES    CLOUDY    44  37  76 E15       29.89F
$$

IAZ062-063-075>077-085>089-095>099-241100-
   SOUTHEAST IOWA

CITY           SKY/WX    TMP DP  RH WIND       PRES   REMARKS
BURLINGTON     MOCLDY    51  33  50 SE15G23   29.84F
FAIRFIELD *    CLOUDY    52  34  50 SE21G28   29.76F
FORT MADISON * CLEAR     54  34  47 SE14G22   29.82F
KEOKUK *       CLEAR     52  34  50 SE16G24   29.80F
OSKALOOSA *      N/A     50  37  62 SE13      29.77R
CENTERVILLE *  PTCLDY    52  37  58 E6        29.75R
OTTUMWA        CLOUDY    51  35  54 SE10      29.77R
WASHINGTON *   CLEAR     50  37  62 SE17      29.81S
$$

ABBREVIATIONS USED IN REMARKS
   TC - TEMPERATURES IN CELSIUS
  WCI - WIND CHILL INDEX
   HX - HEAT INDEX
  VSB - VISIBILITY
$$




USA.gov is the U.S. government's official web portal to all federal, state and local government web resources and services.